Regional Weather Roundup
Issued by NWS New Orleans/Baton Rouge, LA

Home | Current Version | Previous Version | Text Only | Print | Product List | Glossary On
Versions: 1 2 3 4 5 6 7 8 9 10 11 12 13 14 15 16 17 18 19 20 21 22 23 24 25 26 27 28 29 30 31 32 33 34 35 36 37 38 39 40 41 42 43 44 45 46 47 48 49 50
000
ASUS44 KLIX 250311
RWRLIX
NEW ORLEANS REGIONAL WEATHER ROUNDUP
NATIONAL WEATHER SERVICE NEW ORLEANS LA
1000 PM CDT SUN MAY 24 2015

NOTE: "FAIR" INDICATES FEW OR NO CLOUDS BELOW 12,000 FEET WITH NO
      SIGNIFICANT WEATHER AND/OR OBSTRUCTIONS TO VISIBILITY.
      SKY/WX - SKY CONDITION AND SIGNIFICANT WEATHER.
      TMP - AIR TEMPERATURE.     DP    - DEWPOINT TEMPERATURE.
      RH  - RELATIVE HUMIDITY.   PRES  - PRESSURE.
      HI  - HEAT INDEX.          WCI   - WIND CHILL INDEX.

*  THESE STATIONS ARE NOT NWS OR FAA STATIONS AND ARE NOT UNDER
   NWS QUALITY CONTROL.

LAZ038-040-048-061>063-065>067-069-250400-
SOUTHEAST LOUISIANA

CITY           SKY/WX    TMP DP  RH WIND       PRES   REMARKS
N.O. AUDUBON     N/A     80  73  81 MISG        N/A
N.O. INTL ARPT TSTM      74  67  78 SE20G36   30.05R
N.O. LAKEFRONT CLOUDY    84  73  69 SE17G24   30.05R
SLIDELL        CLOUDY    81  75  82 S9        30.04R
BATON ROUGE    LGT RAIN  71  69  93 E8        30.03R
BOOTHVILLE     MOCLDY    81  76  84 SE9       30.07R
BELLE CHASSE   CLOUDY    81  73  76 SE12      30.04R THUNDER
BOGALUSA*        N/A     79  73  79 SE7       30.06R
GALLIANO*      CLOUDY    82  75  77 S9        30.04R
NEW ROADS*     MOCLDY    70  70  98 E6        30.02R THUNDER
GONZALES*      CLOUDY    71  71 100 CALM      30.03S
HAMMOND*       CLOUDY    81  72  74 S7        30.05R
HOUMA*         CLOUDY    74  72  93 SE8       30.02S
PORT FOURCHON* CLEAR     79  72  78 SE13      30.05R

$$

MSZ070-080>082-250400-
SOUTHERN MISSISSIPPI

CITY           SKY/WX    TMP DP  RH WIND       PRES   REMARKS
MCCOMB         CLOUDY    76  73  91 SE7       30.05R
GULFPORT       LGT RAIN  81  75  82 SE22      30.07R
BILOXI         CLOUDY    80  76  86 S18G25    30.07R
PASCAGOULA     MOCLDY    79  74  84 SE13      30.09R

$$

COASTAL OBSERVATIONS
LAKE AND NEARSHORE STATIONS

STATION/POSITION TIME  TEMP    WIND        PRES    WAVE
                       AIR SEA DIR/SP/G            HT/PER
                 (UTC) (F)     (DEG/KT/KT) (MB)    (FT/S)
PASCAGOULA       0200   81     150/ 17/ 22 1018.3
WAVELAND YACHT   0200   81 82  160/ 19/ 24 1017.6
GRAND ISLE       0200   82 82  150/ 13/ 18 1016.9
SOUTHWEST PASS   0200   81 75  160/ 12/ 15 1018.1
NEW CANAL        0200   82 82  150/  6/ 10 1015.7
SHELL BEACH      0200   81 83  140/ 16/ 19 1016.7

OFFSHORE STATIONS

STATION/POSITION TIME  TEMP    WIND        PRES    WAVE
                       AIR SEA DIR/SP/G            HT/PER
                 (UTC) (F)     (DEG/KT/KT) (MB)    (FT/S)
64 S DAUPHIN ISL 0250   80 78  140/ 19/ 21 1019.0    6/ 7

$$



USA.gov is the U.S. government's official web portal to all federal, state and local government web resources and services.